DLH2063 EDDH-LOWI

Flight info

Callsign DLH2063
Flight time 1h 11m
Altitude 31000
Route AMLUH2G AMLUH M852 DENIX DCT ZUCKA DCT GALMA M736 TABAT/N0453F370 M736 AKOSI/N0448F310 M736 RDG/N0439F300 M736 DOSEL/N0453F310 M736 TULSI TULSI3A
Aircraft A20N/M-SDE2E3FGHIRWXY/LB1

Departure

Time 2026-05-06 17:31
Airport Hamburg Helmut Schmidt Airport (EDDH)

Arrival

Time 2026-05-06 18:42
Airport Innsbruck Airport (LOWI)
Time Latitude Longitude Altitude Speed Heading
2026-05-06 17:04 53.62892 10.00212 54 ft 0 kts 122°
2026-05-06 17:25 53.62897 10.00200 50 ft 3 kts 122°
2026-05-06 17:25 53.62907 10.00173 53 ft 3 kts 122°
2026-05-06 17:26 53.62920 10.00150 54 ft 3 kts 155°
2026-05-06 17:26 53.62938 10.00140 51 ft 3 kts 181°
2026-05-06 17:26 53.62956 10.00144 50 ft 3 kts 208°
2026-05-06 17:26 53.62958 10.00146 50 ft 0 kts 208°
2026-05-06 17:28 53.62957 10.00146 50 ft 1 kts 209°
2026-05-06 17:28 53.62924 10.00111 53 ft 7 kts 212°
2026-05-06 17:29 53.62884 10.00066 53 ft 6 kts 221°
2026-05-06 17:29 53.62864 10.00020 53 ft 4 kts 239°
2026-05-06 17:29 53.62850 9.99977 53 ft 4 kts 242°
2026-05-06 17:29 53.62837 9.99937 53 ft 4 kts 242°
2026-05-06 17:30 53.62814 9.99837 52 ft 15 kts 269°
2026-05-06 17:30 53.62882 9.99732 52 ft 17 kts 334°
2026-05-06 17:30 53.63165 9.99494 53 ft 81 kts 333°
2026-05-06 17:30 53.63906 9.98857 53 ft 157 kts 333°
2026-05-06 17:31 53.64930 9.97945 637 ft 169 kts 336°
2026-05-06 17:31 53.65979 9.97007 1531 ft 172 kts 337°
2026-05-06 17:31 53.67071 9.96035 2289 ft 188 kts 338°
2026-05-06 17:31 53.67489 9.95670 2449 ft 195 kts 338°
2026-05-06 17:32 53.68449 9.94842 2805 ft 212 kts 339°
2026-05-06 17:32 53.69919 9.94152 3210 ft 228 kts
2026-05-06 17:32 53.71496 9.94471 3610 ft 225 kts 17°
2026-05-06 17:32 53.72788 9.95667 3897 ft 213 kts 51°
2026-05-06 17:33 53.73430 9.97897 4240 ft 215 kts 74°
2026-05-06 17:33 53.73758 10.00389 4643 ft 220 kts 77°
2026-05-06 17:33 53.74099 10.02922 5022 ft 222 kts 78°
2026-05-06 17:33 53.73981 10.05541 5393 ft 237 kts 110°
2026-05-06 17:34 53.73094 10.08038 5859 ft 257 kts 122°
2026-05-06 17:34 53.72050 10.10556 6265 ft 265 kts 122°
2026-05-06 17:34 53.71068 10.12946 6614 ft 268 kts 121°
2026-05-06 17:34 53.70088 10.15629 7161 ft 270 kts 117°
2026-05-06 17:35 53.69139 10.18386 7711 ft 272 kts 118°
2026-05-06 17:35 53.68127 10.21052 8314 ft 276 kts 127°
2026-05-06 17:35 53.66710 10.23248 8924 ft 281 kts 146°
2026-05-06 17:36 53.62904 10.24903 10021 ft 292 kts 178°
2026-05-06 17:36 53.60813 10.24791 10477 ft 308 kts 177°
2026-05-06 17:36 53.58654 10.25322 10970 ft 322 kts 166°
2026-05-06 17:36 53.56440 10.26248 11517 ft 334 kts 166°
2026-05-06 17:37 53.54140 10.27202 12073 ft 346 kts 167°
2026-05-06 17:37 53.51778 10.28143 12632 ft 350 kts 167°
2026-05-06 17:37 53.49398 10.29116 13198 ft 353 kts 166°
2026-05-06 17:37 53.47018 10.30238 13770 ft 356 kts 165°
2026-05-06 17:38 53.44631 10.31396 14371 ft 359 kts 166°
2026-05-06 17:38 53.42211 10.32532 14984 ft 362 kts 166°
2026-05-06 17:38 53.39780 10.33652 15612 ft 364 kts 167°
2026-05-06 17:38 53.37319 10.34771 16237 ft 367 kts 167°
2026-05-06 17:39 53.34868 10.35873 16883 ft 371 kts 167°
2026-05-06 17:39 53.32364 10.36995 17549 ft 374 kts 167°
2026-05-06 17:39 53.30655 10.37759 17999 ft 377 kts 168°
2026-05-06 17:39 53.28180 10.38865 18601 ft 379 kts 167°
2026-05-06 17:40 53.25613 10.40011 19195 ft 382 kts 167°
2026-05-06 17:40 53.23040 10.41159 19805 ft 384 kts 167°
2026-05-06 17:40 53.20435 10.42210 20436 ft 385 kts 170°
2026-05-06 17:40 53.17843 10.43120 21063 ft 386 kts 170°
2026-05-06 17:41 53.15173 10.44023 21724 ft 386 kts 171°
2026-05-06 17:41 53.12536 10.44887 22391 ft 386 kts 171°
2026-05-06 17:41 53.09933 10.45723 23057 ft 386 kts 171°
2026-05-06 17:41 53.07294 10.46562 23695 ft 384 kts 171°
2026-05-06 17:42 53.04683 10.47389 24283 ft 382 kts 171°
2026-05-06 17:42 53.02085 10.48211 24880 ft 379 kts 171°
2026-05-06 17:42 52.99471 10.49036 25176 ft 386 kts 171°
2026-05-06 17:42 52.96805 10.49876 25349 ft 395 kts 171°
2026-05-06 17:43 52.87258 10.52886 26255 ft 414 kts 171°
2026-05-06 17:43 52.75807 10.56491 27631 ft 424 kts 172°
2026-05-06 17:43 52.64109 10.60150 29273 ft 429 kts 172°
2026-05-06 17:43 52.52416 10.63790 30774 ft 428 kts 172°
2026-05-06 17:44 52.28643 10.71109 30830 ft 452 kts 172°
2026-05-06 17:44 52.04288 10.78554 30800 ft 445 kts 173°
2026-05-06 17:45 51.88959 10.83188 30786 ft 446 kts 173°
2026-05-06 17:45 51.82853 10.85025 30782 ft 446 kts 172°
2026-05-06 17:46 51.76744 10.86858 30785 ft 446 kts 172°
2026-05-06 17:46 51.70640 10.88684 30781 ft 446 kts 172°
2026-05-06 17:47 51.64817 10.92134 30780 ft 457 kts 147°
2026-05-06 17:47 51.62512 10.95718 30782 ft 465 kts 132°
2026-05-06 17:47 51.60664 11.00010 30781 ft 469 kts 126°
2026-05-06 17:48 51.57259 11.08929 30780 ft 470 kts 127°
2026-05-06 17:48 51.53547 11.17522 30778 ft 468 kts 130°
2026-05-06 17:49 51.49543 11.25744 30773 ft 466 kts 133°
2026-05-06 17:49 51.45320 11.33624 30759 ft 465 kts 136°
2026-05-06 17:50 51.40877 11.41144 30751 ft 464 kts 139°
2026-05-06 17:50 51.36219 11.48268 30739 ft 462 kts 141°
2026-05-06 17:51 51.31339 11.54983 30735 ft 461 kts 144°
2026-05-06 17:51 51.26194 11.60867 30769 ft 454 kts 159°
2026-05-06 17:52 51.23201 11.62318 30774 ft 446 kts 175°
2026-05-06 17:52 51.20122 11.62317 30772 ft 440 kts 191°
2026-05-06 17:52 51.17225 11.60889 30772 ft 436 kts 207°
2026-05-06 17:52 51.14652 11.58353 30772 ft 435 kts 217°
2026-05-06 17:53 51.10236 11.51797 30771 ft 436 kts 230°
2026-05-06 17:53 51.06969 11.43689 30776 ft 437 kts 244°
2026-05-06 17:54 51.05104 11.34448 30790 ft 441 kts 258°
2026-05-06 17:54 51.04027 11.24944 30772 ft 438 kts 245°
2026-05-06 17:55 51.02472 11.20816 30777 ft 435 kts 229°
2026-05-06 17:55 51.00218 11.17624 30774 ft 436 kts 213°
2026-05-06 17:55 50.97462 11.15640 30773 ft 438 kts 197°
2026-05-06 17:55 50.94434 11.14886 30776 ft 441 kts 188°
2026-05-06 17:56 50.88277 11.14808 30774 ft 446 kts 175°
2026-05-06 17:56 50.82274 11.17500 30770 ft 453 kts 161°
2026-05-06 17:57 50.76586 11.21716 30770 ft 455 kts 157°
2026-05-06 17:57 50.70969 11.26350 30767 ft 455 kts 156°
2026-05-06 17:58 50.65399 11.31069 30766 ft 455 kts 156°
2026-05-06 17:58 50.59817 11.35777 30763 ft 454 kts 156°
2026-05-06 17:59 50.54248 11.40434 30763 ft 453 kts 156°
2026-05-06 17:59 50.48606 11.44815 30764 ft 449 kts 162°
2026-05-06 18:00 50.42768 11.48196 30770 ft 446 kts 165°
2026-05-06 18:00 50.36873 11.51269 30765 ft 446 kts 166°
2026-05-06 18:01 50.30980 11.54293 30767 ft 445 kts 166°
2026-05-06 18:01 50.25138 11.57311 30769 ft 444 kts 166°
2026-05-06 18:02 50.19830 11.60067 30769 ft 444 kts 166°
2026-05-06 18:02 50.16420 11.61838 30762 ft 443 kts 166°
2026-05-06 18:03 50.10566 11.64872 30769 ft 443 kts 166°
2026-05-06 18:03 50.04714 11.67896 30759 ft 443 kts 166°
2026-05-06 18:04 49.98909 11.70888 30752 ft 442 kts 166°
2026-05-06 18:04 49.93065 11.73891 30756 ft 442 kts 166°
2026-05-06 18:05 49.87229 11.76883 30753 ft 442 kts 167°
2026-05-06 18:05 49.81386 11.79870 30752 ft 442 kts 167°
2026-05-06 18:06 49.75555 11.82845 30761 ft 441 kts 167°
2026-05-06 18:06 49.69739 11.85804 30758 ft 441 kts 167°
2026-05-06 18:07 49.63898 11.88768 30759 ft 440 kts 167°
2026-05-06 18:07 49.58114 11.91696 30755 ft 439 kts 167°
2026-05-06 18:08 49.52300 11.94633 30751 ft 439 kts 167°
2026-05-06 18:08 49.46506 11.97551 30751 ft 438 kts 167°
2026-05-06 18:09 49.40726 12.00455 30764 ft 436 kts 167°
2026-05-06 18:09 49.34984 12.03333 30771 ft 436 kts 167°
2026-05-06 18:10 49.29210 12.06220 30773 ft 436 kts 167°
2026-05-06 18:10 49.23427 12.09104 30775 ft 436 kts 167°
2026-05-06 18:11 49.18628 12.11492 30771 ft 436 kts 167°
2026-05-06 18:11 49.12853 12.14360 30762 ft 436 kts 167°
2026-05-06 18:12 49.07074 12.17222 30759 ft 437 kts 167°
2026-05-06 18:12 49.01284 12.20081 30753 ft 437 kts 167°
2026-05-06 18:13 48.95490 12.22935 30746 ft 438 kts 167°
2026-05-06 18:13 48.89687 12.25787 30486 ft 437 kts 167°
2026-05-06 18:14 48.86819 12.27195 30108 ft 439 kts 167°
2026-05-06 18:14 48.83912 12.28619 29692 ft 440 kts 166°
2026-05-06 18:14 48.80997 12.30046 29238 ft 438 kts 166°
2026-05-06 18:14 48.78102 12.31464 28782 ft 437 kts 166°
2026-05-06 18:15 48.75208 12.32880 28336 ft 434 kts 166°
2026-05-06 18:15 48.72345 12.34279 27901 ft 432 kts 166°
2026-05-06 18:15 48.69480 12.35676 27468 ft 430 kts 166°
2026-05-06 18:15 48.66641 12.37057 27053 ft 428 kts 166°
2026-05-06 18:16 48.63802 12.38438 26633 ft 426 kts 166°
2026-05-06 18:16 48.60980 12.39807 26219 ft 425 kts 166°
2026-05-06 18:16 48.58162 12.41174 25809 ft 423 kts 166°
2026-05-06 18:16 48.55359 12.42530 25420 ft 422 kts 166°
2026-05-06 18:17 48.52568 12.43880 25025 ft 420 kts 166°
2026-05-06 18:17 48.49827 12.45205 24638 ft 418 kts 166°
2026-05-06 18:17 48.47060 12.46540 24268 ft 417 kts 166°
2026-05-06 18:17 48.44275 12.47679 23908 ft 410 kts 176°
2026-05-06 18:18 48.41475 12.47486 23794 ft 401 kts 195°
2026-05-06 18:18 48.38920 12.45907 23782 ft 396 kts 214°
2026-05-06 18:18 48.36866 12.43180 23786 ft 396 kts 229°
2026-05-06 18:18 48.35164 12.39919 23792 ft 397 kts 233°
2026-05-06 18:19 48.33501 12.36607 23793 ft 397 kts 231°
2026-05-06 18:19 48.31729 12.33413 23610 ft 396 kts 228°
2026-05-06 18:19 48.29839 12.30418 23132 ft 396 kts 225°
2026-05-06 18:19 48.27834 12.27574 22598 ft 395 kts 222°
2026-05-06 18:20 48.25780 12.24869 22062 ft 392 kts 221°
2026-05-06 18:20 48.23696 12.22233 21534 ft 390 kts 220°
2026-05-06 18:20 48.21615 12.19643 21026 ft 387 kts 220°
2026-05-06 18:20 48.19539 12.17067 20523 ft 385 kts 220°
2026-05-06 18:21 48.17488 12.14512 20063 ft 383 kts 220°
2026-05-06 18:21 48.15449 12.11961 19849 ft 380 kts 220°
2026-05-06 18:21 48.13424 12.09420 19824 ft 380 kts 220°
2026-05-06 18:21 48.11400 12.06874 19827 ft 380 kts 220°
2026-05-06 18:22 48.09372 12.04323 19827 ft 379 kts 220°
2026-05-06 18:22 48.07378 12.01816 19829 ft 380 kts 220°
2026-05-06 18:22 48.05352 11.99271 19832 ft 379 kts 220°
2026-05-06 18:22 48.03326 11.96729 19813 ft 379 kts 220°
2026-05-06 18:23 48.01307 11.94198 19516 ft 378 kts 220°
2026-05-06 18:23 47.99289 11.91672 19155 ft 377 kts 220°
2026-05-06 18:23 47.97285 11.89166 18794 ft 375 kts 220°
2026-05-06 18:23 47.95286 11.86669 18439 ft 373 kts 219°
2026-05-06 18:24 47.93325 11.84222 18089 ft 371 kts 219°
2026-05-06 18:24 47.91353 11.81766 17673 ft 368 kts 219°
2026-05-06 18:24 47.89188 11.79777 17272 ft 366 kts 201°
2026-05-06 18:24 47.86691 11.79127 16880 ft 366 kts 184°
2026-05-06 18:25 47.84152 11.79149 16439 ft 365 kts 181°
2026-05-06 18:25 47.81617 11.79209 15981 ft 362 kts 182°
2026-05-06 18:25 47.79106 11.79203 15528 ft 359 kts 183°
2026-05-06 18:25 47.76611 11.79143 15073 ft 357 kts 184°
2026-05-06 18:26 47.74147 11.79050 14633 ft 354 kts 184°
2026-05-06 18:26 47.71681 11.78933 14191 ft 353 kts 185°
2026-05-06 18:26 47.69230 11.78816 13760 ft 354 kts 178°
2026-05-06 18:26 47.66860 11.79822 13284 ft 357 kts 160°
2026-05-06 18:27 47.64604 11.81364 12901 ft 356 kts 158°
2026-05-06 18:27 47.62360 11.82890 12809 ft 349 kts 159°
2026-05-06 18:27 47.60227 11.84337 12808 ft 328 kts 157°
2026-05-06 18:27 47.58418 11.86274 12801 ft 319 kts 136°
2026-05-06 18:28 47.57152 11.88905 12792 ft 308 kts 126°
2026-05-06 18:28 47.56101 11.91585 12794 ft 293 kts 124°
2026-05-06 18:28 47.55127 11.94160 12791 ft 280 kts 124°
2026-05-06 18:28 47.54214 11.96605 12790 ft 272 kts 124°
2026-05-06 18:29 47.53302 11.99058 12661 ft 271 kts 124°
2026-05-06 18:29 47.52402 12.01502 12162 ft 270 kts 124°
2026-05-06 18:29 47.51479 12.03905 11741 ft 266 kts 130°
2026-05-06 18:29 47.50195 12.05757 11311 ft 254 kts 150°
2026-05-06 18:30 47.48719 12.07178 10883 ft 251 kts 154°
2026-05-06 18:30 47.47251 12.08506 10591 ft 245 kts 154°
2026-05-06 18:30 47.45826 12.09789 10465 ft 234 kts 154°
2026-05-06 18:30 47.44454 12.11029 10242 ft 228 kts 154°
2026-05-06 18:31 47.43113 12.12252 9867 ft 224 kts 154°
2026-05-06 18:31 47.41723 12.13152 9558 ft 218 kts 169°
2026-05-06 18:31 47.40233 12.13351 9495 ft 215 kts 189°
2026-05-06 18:31 47.38848 12.12617 9488 ft 212 kts 214°
2026-05-06 18:32 47.37910 12.10979 9490 ft 212 kts 243°
2026-05-06 18:32 47.37441 12.08893 9486 ft 216 kts 252°
2026-05-06 18:32 47.37087 12.06760 9500 ft 216 kts 253°
2026-05-06 18:32 47.36739 12.04592 9487 ft 216 kts 252°
2026-05-06 18:33 47.36376 12.02427 9495 ft 216 kts 253°
2026-05-06 18:33 47.36008 12.00304 9503 ft 215 kts 248°
2026-05-06 18:33 47.35456 11.98271 9477 ft 215 kts 245°
2026-05-06 18:33 47.35013 11.96127 9504 ft 217 kts 252°
2026-05-06 18:34 47.34650 11.93989 9497 ft 217 kts 253°
2026-05-06 18:34 47.34331 11.91802 9500 ft 218 kts 255°
2026-05-06 18:34 47.34058 11.89620 9507 ft 219 kts 256°
2026-05-06 18:34 47.33801 11.87399 9501 ft 218 kts 257°
2026-05-06 18:35 47.33558 11.85278 9483 ft 202 kts 256°
2026-05-06 18:35 47.33313 11.83287 9489 ft 197 kts 255°
2026-05-06 18:35 47.33008 11.81323 9556 ft 194 kts 251°
2026-05-06 18:35 47.32673 11.79387 9536 ft 195 kts 253°
2026-05-06 18:36 47.32381 11.77457 9272 ft 195 kts 255°
2026-05-06 18:36 47.32093 11.75490 8955 ft 197 kts 255°
2026-05-06 18:36 47.31796 11.73496 8559 ft 203 kts 255°
2026-05-06 18:36 47.31482 11.71427 8091 ft 210 kts 255°
2026-05-06 18:37 47.31161 11.69299 7583 ft 214 kts 255°
2026-05-06 18:37 47.30950 11.67894 7305 ft 210 kts 254°
2026-05-06 18:37 47.30536 11.65133 6812 ft 200 kts 254°
2026-05-06 18:37 47.30238 11.63157 6540 ft 196 kts 255°
2026-05-06 18:38 47.29944 11.61205 6257 ft 195 kts 255°
2026-05-06 18:38 47.29654 11.59276 5950 ft 196 kts 255°
2026-05-06 18:38 47.29359 11.57314 5594 ft 197 kts 256°
2026-05-06 18:38 47.29061 11.55338 5235 ft 197 kts 256°
2026-05-06 18:39 47.28765 11.53370 4892 ft 196 kts 255°
2026-05-06 18:39 47.28470 11.51409 4574 ft 196 kts 255°
2026-05-06 18:39 47.28178 11.49475 4262 ft 190 kts 256°
2026-05-06 18:40 47.27775 11.46797 3814 ft 172 kts 257°
2026-05-06 18:40 47.27523 11.45122 3484 ft 163 kts 257°
2026-05-06 18:40 47.27287 11.43548 3225 ft 151 kts 257°
2026-05-06 18:40 47.27058 11.42065 3017 ft 148 kts 256°
2026-05-06 18:41 47.26829 11.40598 2777 ft 147 kts 257°
2026-05-06 18:41 47.26616 11.39134 2516 ft 149 kts 257°
2026-05-06 18:41 47.26404 11.37633 2253 ft 150 kts 254°
2026-05-06 18:41 47.26213 11.36103 1984 ft 155 kts 252°
2026-05-06 18:42 47.26031 11.34585 1907 ft 136 kts 260°
2026-05-06 18:42 47.25919 11.33535 1918 ft 58 kts 263°
2026-05-06 18:42 47.25871 11.33208 1917 ft 19 kts 270°
2026-05-06 18:42 47.25897 11.33157 1917 ft 2 kts 29°
2026-05-06 18:43 47.25900 11.33252 1917 ft 20 kts 87°
2026-05-06 18:43 47.25920 11.33530 1918 ft 29 kts 83°
2026-05-06 18:43 47.25863 11.33761 1920 ft 24 kts 127°
2026-05-06 18:43 47.25774 11.33981 1902 ft 27 kts 105°
2026-05-06 18:44 47.25780 11.34178 1894 ft 16 kts 80°
2026-05-06 18:44 47.25804 11.34365 1904 ft 23 kts 79°
2026-05-06 18:44 47.25833 11.34650 1904 ft 32 kts 83°
2026-05-06 18:44 47.25844 11.34888 1896 ft 14 kts 109°
2026-05-06 18:45 47.25808 11.34926 1894 ft 0 kts 181°